Location: Bucharest
(44.4268°N, 26.1025°E)
Time: 14:19:24
(UTC+03:00)

M-CUBED/EXP-1 PRIME - Visible Passes

Search period start: 25 June 2022 00:00
Search period end: 05 July 2022 00:00
Orbit: 423 x 634 km, 101.7° (Epoch: 24 June)

Date Brightness Start Highest point End Pass type
(mag) Time Alt. Az. Time Alt. Az. Time Alt. Az.
25 Jun ? 01:07:22 13° E 01:08:21 14° ENE 01:10:08 10° NNE visible
25 Jun ? 02:42:38 30° WNW 02:42:38 30° WNW 02:44:57 10° NW visible
26 Jun ? 00:57:04 10° ENE 00:57:31 10° NE 00:57:57 10° NE visible
26 Jun ? 02:31:26 46° WNW 02:31:26 46° WNW 02:34:08 10° NNW visible
27 Jun ? 02:20:14 71° NW 02:20:14 71° NW 02:23:14 10° NNW visible
28 Jun ? 02:09:01 64° ENE 02:09:01 64° ENE 02:12:13 10° NNW visible
29 Jun ? 01:57:48 41° ENE 01:57:59 42° ENE 02:01:08 10° N visible
30 Jun ? 01:46:33 27° E 01:47:02 29° ENE 01:49:56 10° N visible
30 Jun ? 03:21:48 14° W 03:21:48 14° W 03:23:05 10° WNW visible
01 Jul ? 01:35:19 19° E 01:36:06 21° ENE 01:38:39 10° NNE visible
01 Jul ? 03:10:33 21° W 03:10:33 21° W 03:12:34 10° NW visible
02 Jul ? 01:24:03 13° E 01:25:10 15° ENE 01:27:11 10° NNE visible
02 Jul ? 02:59:18 31° W 02:59:18 31° W 03:01:50 10° NW visible
03 Jul ? 01:13:13 10° ENE 01:14:15 11° NE 01:15:19 10° NE visible
03 Jul ? 02:48:01 48° W 02:48:01 48° W 02:50:58 10° NNW visible
04 Jul ? 02:36:44 76° WNW 02:36:44 76° WNW 02:39:59 10° NNW visible
